Temperature
18 18 18 18 17 17 17 17 17 16 16 16 16 16 16 16 15 15 15 15 15 15 15 15 15 15 15 15 15 15 15 14 14 14 14 14 14 14 14 14 14 14 14
18 18 17 17 17 17 17 17 16 16 16 16 16 16 15 15 15 15 15 15 15 15 15 15 15 15 15 15 15 14 14 14 14 14 14 14 14 14 14 14 14 14 14
17 17 17 17 17 16 16 16 16 16 16 15 15 15 15 15 15 15 15 15 15 15 15 15 15 15 15 15 14 14 14 14 14 14 14 14 14 13 13 13 13 13 13
17 17 17 16 16 16 16 16 16 16 15 15 15 15 15 15 15 15 15 14 15 15 15 15 15 15 14 14 14 14 14 14 14 14 13 13 13 13 13 13 13 13 13
17 17 17 16 16 16 16 16 16 15 15 15 15 15 15 14 14 14 14 14 14 14 14 14 14 14 14 14 14 14 14 14 14 13 13 13 13 13 13 13 13 13 13
17 16 16 16 16 15 15 15 15 15 15 15 15 15 15 14 14 14 14 14 14 14 14 14 14 14 14 14 14 13 13 13 13 13 13 13 13 13 13 12 12 12 12
16 16 16 16 16 15 15 14 15 15 15 15 15 14 14 14 14 14 14 14 14 14 14 14 14 14 14 13 13 13 13 13 13 13 13 13 13 13 12 12 12 12 12
16 16 16 15 15 15 15 14 15 15 15 15 15 14 14 14 14 14 14 14 14 14 14 14 14 13 13 13 13 13 13 13 13 12 12 12 12 12 12 12 12 12 12
16 15 15 15 15 15 15 14 15 15 15 15 15 14 14 14 14 14 14 14 13 13 13 13 13 13 13 13 13 13 13 12 12 12 12 12 12 12 12 12 12 12 12
15 15 15 15 15 15 15 15 15 15 14 14 14 14 14 14 14 14 13 13 13 13 13 13 13 13 13 13 12 12 12 12 12 12 12 12 12 12 12 12 11 11 11
15 15 15 14 14 14 14 14 14 14 14 14 14 14 14 13 13 13 13 13 13 13 13 13 13 13 13 12 12 12 12 12 12 12 12 12 12 12 11 11 11 11 11
14 14 14 14 14 14 14 14 14 14 14 13 13 13 13 13 13 13 13 13 13 12 12 12 12 12 12 12 12 12 12 12 12 12 12 12 11 11 11 11 11 11 11
14 14 14 14 14 14 14 13 13 13 13 13 13 13 13 13 13 13 13 13 12 12 12 12 12 12 12 12 12 12 11 11 11 11 11 11 11 11 11 11 11 11 11
13 13 13 13 13 13 13 13 13 13 13 13 13 12 12 12 12 12 12 12 12 12 12 12 12 12 11 11 11 11 11 11 11 11 11 11 11 11 11 10 10 10 10
13 13 13 13 13 13 13 13 13 13 13 12 12 12 12 12 12 12 12 12 12 12 11 11 11 11 11 11 11 11 11 11 11 11 10 10 10 10 10 10 10 10 10
12 12 12 12 12 12 12 12 12 12 12 12 12 12 12 12 12 12 11 11 11 11 11 11 11 11 11 11 11 11 11 11 10 10 10 10 10 10 10 10 10 10 9
12 12 12 12 12 12 12 11 11 11 11 11 11 12 12 12 12 11 11 11 11 11 11 11 11 11 11 11 10 10 10 10 10 10 10 10 10 10 10 9 9 9 9
12 12 12 12 12 11 11 11 11 11 11 11 11 11 11 11 11 11 11 11 11 11 11 10 10 10 10 10 10 10 10 10 10 10 10 10 9 9 9 9 9 9 9
12 12 11 11 11 11 11 11 11 11 11 11 11 11 11 11 11 11 11 11 11 11 10 10 10 10 10 10 10 10 10 10 9 9 9 9 9 9 9 9 9 8 8
11 11 11 11 11 11 11 11 10 10 10 10 10 10 10 10 10 10 10 10 10 10 10 10 10 10 10 10 9 10 10 9 9 9 9 9 9 8 8 8 8 8 8
11 11 11 11 11 11 10 10 10 10 10 10 10 10 10 10 10 10 10 10 10 10 10 10 10 10 9 9 9 9 9 9 9 9 8 8 8 8 8 8 8 8 8
11 11 10 10 10 10 10 10 10 10 10 9 9 9 9 9 9 9 9 9 9 9 9 9 9 9 9 9 9 9 9 9 8 8 8 8 8 8 8 8 7 7 7
10 10 10 10 10 10 10 10 10 9 9 9 9 9 9 9 9 9 9 9 9 9 9 9 9 9 8 8 8 8 8 8 8 8 8 7 7 7 7 7 7 7 7
10 10 10 10 10 10 9 9 9 9 9 9 9 9 9 9 9 8 8 8 8 8 8 8 8 8 8 8 8 8 8 8 7 7 7 7 7 7 7 7 7 7 7
9 9 9 9 9 9 9 9 9 9 9 9 9 8 8 8 8 8 8 8 8 8 8 8 8 8 8 8 7 7 7 7 7 7 7 7 7 7 6 6 6 6 6
9 9 9 9 9 9 9 9 9 9 8 8 8 8 8 8 8 8 8 7 7 7 7 7 7 7 7 7 7 7 7 7 7 6 6 6 6 6 6 6 6 6 6
Wind_Speed
7 6 5 5 5 6 6 7 7 6 6 6 6 5 5 4 3 3 3 3 2 2 1 2 2 1 1 1 2 2 2 2 2 3 2 2 1 1 1 2 4 4 5
7 6 5 4 5 6 6 6 7 7 6 6 6 5 5 5 4 4 3 3 3 3 2 1 1 1 1 1 2 2 2 2 3 3 2 1 2 2 2 2 2 3 4
6 6 5 4 5 5 5 5 6 7 6 5 5 5 5 4 4 4 4 3 3 3 3 3 2 2 2 2 2 2 2 2 2 2 2 1 1 1 1 2 1 1 2
5 5 6 6 6 6 5 5 6 6 6 6 5 4 4 4 4 3 3 3 3 3 3 3 3 4 4 3 3 3 3 2 2 1 1 2 1 1 0 1 2 2 2
5 5 5 5 4 4 5 5 5 5 5 5 5 4 3 4 4 4 3 3 2 2 1 1 2 3 4 4 3 3 3 2 2 1 2 1 2 1 2 1 1 2 3
5 4 3 5 5 5 4 4 4 4 4 4 4 4 3 3 3 5 4 3 2 2 2 1 1 1 2 3 3 4 4 4 3 3 3 3 4 3 2 2 1 1 2
5 4 3 4 5 5 5 5 5 5 4 4 4 4 3 3 4 5 6 4 3 3 3 2 2 2 2 2 1 1 2 3 4 4 4 5 4 4 3 3 3 3 4
4 3 3 4 5 4 4 5 4 3 4 3 4 4 3 3 4 4 4 4 3 3 3 4 3 3 2 2 2 1 2 2 3 3 5 6 6 5 5 5 5 3 2
4 3 3 4 4 4 4 4 3 3 3 3 4 4 4 3 4 4 4 2 2 2 3 3 4 3 4 4 2 2 3 4 4 4 6 6 7 7 6 2 2 2 2
4 4 4 4 5 5 4 3 2 3 3 3 3 3 4 3 4 4 5 3 2 2 2 3 4 4 4 4 3 3 4 4 3 3 3 4 4 4 5 5 5 4 2
3 3 3 3 3 4 3 2 2 2 2 3 2 2 2 3 3 3 5 3 3 2 2 2 3 4 4 5 5 5 6 5 3 3 3 3 2 2 3 4 5 5 4
3 3 3 2 2 2 2 2 2 3 3 2 2 2 1 2 2 3 5 5 4 3 3 3 3 4 5 5 5 5 5 3 2 1 2 2 3 3 3 3 4 5 5
3 3 3 2 2 2 3 3 2 2 3 2 2 2 2 1 2 3 4 5 4 3 3 4 5 5 5 4 4 5 3 2 2 2 3 4 3 3 2 2 2 2 2
3 2 2 2 2 2 2 2 3 3 3 3 3 3 3 3 3 2 2 2 3 2 3 3 4 3 2 3 3 3 2 2 3 3 3 3 2 2 2 2 2 1 1
3 2 2 2 2 2 2 2 3 3 4 5 5 5 4 5 6 8 5 4 3 3 2 1 1 1 1 2 2 2 2 2 3 2 2 2 2 2 2 2 1 1 1
3 2 2 2 2 2 2 0 1 1 2 4 5 6 5 7 7 8 8 7 7 5 2 1 2 3 3 3 3 3 2 3 3 3 2 2 2 2 2 1 1 1 2
4 3 2 2 2 2 3 3 1 2 1 1 3 5 6 6 7 7 7 6 5 5 3 3 3 4 4 4 4 4 3 3 2 2 2 2 2 2 2 2 2 2 2
4 4 3 3 3 3 3 3 3 3 1 2 3 4 5 5 6 6 5 3 1 2 3 3 4 4 4 4 4 3 3 2 2 2 2 2 2 2 2 2 2 2 2
4 3 3 3 3 3 3 3 3 3 2 2 1 2 3 3 3 3 4 3 3 3 4 4 4 3 3 3 2 2 2 2 2 2 1 2 1 1 1 2 2 2 2
3 4 3 3 2 2 2 3 3 2 2 2 2 2 1 2 1 1 2 2 3 3 3 3 3 3 2 2 2 2 1 1 1 1 1 1 1 1 2 2 2 1 2
2 3 4 2 2 3 3 3 3 3 2 2 2 3 4 3 3 3 3 3 3 3 3 3 2 2 2 2 2 2 2 1 1 1 1 1 1 1 1 2 2 2 2
1 2 2 3 3 3 3 3 2 2 2 2 2 1 4 2 2 2 2 2 2 2 2 2 2 1 1 2 2 2 2 1 1 1 1 1 1 1 1 1 1 1 2
1 1 2 1 2 2 2 2 2 2 2 2 1 1 1 1 1 2 2 2 1 1 2 2 2 2 2 3 2 2 2 2 1 2 2 1 1 1 1 1 1 1 1
1 2 2 1 1 2 2 2 2 2 2 1 1 1 1 1 1 1 1 1 1 1 1 2 3 4 4 3 3 3 3 2 1 1 1 1 1 1 1 1 1 1 1
2 2 2 2 2 2 2 2 2 2 1 1 2 2 2 1 1 1 1 1 1 1 1 3 3 4 4 4 4 3 3 3 2 1 1 1 0 1 1 1 1 1 1
2 1 1 2 2 2 2 2 2 2 2 2 2 2 2 2 2 2 1 1 1 1 1 2 3 4 4 4 4 4 4 3 2 2 2 1 0 1 1 1 1 1 1
Wind_Direction
186 188 188 188 184 179 180 180 179 176 174 178 182 180 182 187 187 186 201 182 178 199 187 157 197 191 186 215 190 176 173 161 208 269 274 297 309 296 290 252 245 234 240
183 179 184 188 180 180 183 181 175 174 178 182 182 180 186 189 190 190 200 190 181 193 198 176 220 197 208 223 191 195 197 186 190 242 286 307 293 267 261 267 259 248 244
172 169 167 178 184 183 186 179 173 170 171 173 175 179 186 190 193 198 193 190 193 197 194 195 212 191 224 235 208 204 204 199 184 199 261 283 295 295 322 309 292 295 275
152 156 165 178 187 187 181 172 168 167 167 171 175 177 178 180 185 192 186 185 198 205 204 203 203 193 205 213 215 211 193 172 168 181 252 283 286 295 2 306 319 318 300
139 153 168 171 167 170 174 166 157 158 169 170 167 166 170 175 185 182 186 185 187 193 206 205 200 192 191 202 204 199 183 179 179 205 249 279 280 287 250 248 265 296 296
140 154 165 163 157 158 168 166 155 148 150 150 157 162 167 187 190 183 178 181 181 185 206 224 233 215 205 204 201 193 186 192 203 208 231 235 248 245 236 233 230 303 293
148 154 164 146 144 154 166 164 162 157 152 155 166 166 172 193 186 180 181 174 183 199 206 212 240 251 224 218 233 229 227 221 211 204 217 232 234 232 215 228 232 230 244
140 148 157 147 139 141 148 166 173 164 161 176 182 174 176 201 189 182 180 174 185 208 212 205 208 245 243 213 216 236 251 254 237 220 216 231 233 229 212 214 224 237 261
148 158 158 146 142 147 159 180 181 165 174 188 182 180 185 212 204 195 174 170 189 233 237 225 212 225 240 210 201 240 268 279 272 250 233 235 241 240 222 189 208 206 269
170 167 160 154 158 168 173 192 196 176 188 182 180 189 192 210 215 195 175 170 187 237 261 252 230 222 222 197 199 215 244 262 266 287 285 277 266 256 227 202 201 205 223
159 145 145 153 166 171 172 178 162 163 162 170 179 192 189 197 192 177 172 169 191 215 244 264 265 248 234 220 214 219 233 243 245 246 262 277 290 272 253 232 212 202 211
148 144 148 157 175 170 163 181 177 163 169 182 179 182 205 196 191 190 180 181 184 196 235 251 260 261 254 241 229 238 239 234 227 241 260 266 269 270 267 253 234 224 220
142 157 173 174 177 170 170 177 178 166 174 196 189 202 226 230 242 229 206 203 199 208 240 250 259 262 263 258 252 247 234 211 216 237 250 253 252 255 267 278 273 263 271
152 174 182 178 182 174 176 177 175 178 178 188 202 207 215 216 230 228 233 234 227 238 261 278 274 268 263 268 275 268 241 219 211 229 244 252 269 284 272 259 253 258 287
163 176 188 189 196 198 188 197 195 210 201 192 200 202 202 222 229 212 205 211 213 217 215 289 320 303 283 287 280 269 248 236 232 235 240 258 268 271 274 267 234 226 232
162 180 195 197 202 194 180 268 316 239 220 200 197 196 215 219 214 212 215 214 211 195 163 211 241 243 240 241 246 257 255 242 233 220 222 230 242 253 264 267 234 220 237
182 191 197 193 191 187 185 189 232 325 340 301 232 214 213 211 207 211 213 209 203 168 175 219 228 234 238 238 237 235 238 238 220 210 217 226 235 244 241 250 245 235 242
193 201 198 197 195 193 195 197 196 197 235 297 287 252 229 216 214 217 201 153 165 181 200 215 228 233 235 235 232 226 233 235 218 217 224 241 243 232 239 256 246 233 240
200 209 205 196 193 191 191 188 195 199 210 236 286 297 250 231 224 216 174 175 201 218 222 224 229 230 232 234 228 218 209 218 222 218 222 235 238 220 237 257 262 256 238
201 202 190 185 191 188 186 190 194 193 202 214 225 238 203 133 153 196 198 206 213 225 225 227 232 222 215 219 215 199 190 204 211 205 220 250 246 227 235 245 248 250 253
200 202 193 173 173 184 186 189 194 198 206 217 232 231 193 183 197 199 195 207 219 224 223 220 222 225 216 205 183 166 165 192 206 200 210 263 272 271 271 260 254 250 250
170 173 175 185 175 179 191 194 191 201 221 234 257 248 205 181 188 190 198 212 214 206 197 179 184 200 194 174 159 155 161 179 203 201 219 254 262 264 270 274 267 260 260
159 159 163 176 167 171 184 195 193 193 210 223 212 206 190 201 194 185 195 202 179 183 176 159 159 158 139 128 133 148 153 181 223 210 191 236 271 269 262 261 254 254 267
151 153 164 181 171 170 169 173 174 178 183 186 188 191 209 221 215 201 185 181 158 175 171 154 156 153 144 130 117 121 123 126 121 138 170 187 249 293 292 294 283 266 255
151 149 163 170 167 166 163 167 167 169 190 212 215 219 229 221 209 206 189 163 146 155 161 143 144 153 150 142 132 124 118 112 108 114 106 118 258 285 283 295 301 292 261
154 156 173 174 173 176 181 190 195 193 203 218 218 219 216 203 194 185 166 137 131 137 150 142 143 144 145 147 148 133 117 108 94 87 93 122 207 281 287 284 299 292 270
Height
1505 1506 1508 1509 1510 1512 1513 1514 1516 1517 1519 1520 1521 1522 1523 1523 1524 1525 1525 1526 1526 1527 1527 1528 1529 1529 1529 1530 1530 1530 1530 1530 1529 1529 1529 1529 1528 1528 1527 1527 1527 1526 1525
1503 1504 1506 1507 1508 1509 1511 1513 1514 1516 1517 1518 1519 1520 1521 1521 1522 1523 1523 1524 1524 1525 1525 1526 1526 1527 1527 1527 1528 1528 1528 1528 1528 1527 1526 1527 1526 1526 1526 1525 1524 1524 1523
1500 1502 1503 1505 1506 1507 1509 1511 1512 1514 1515 1516 1518 1518 1519 1520 1520 1521 1522 1522 1523 1523 1524 1524 1524 1525 1525 1525 1525 1526 1526 1526 1526 1525 1524 1524 1524 1524 1523 1523 1522 1522 1521
1498 1499 1501 1501 1503 1505 1507 1509 1510 1512 1513 1514 1516 1516 1517 1518 1518 1519 1520 1520 1520 1521 1521 1522 1522 1522 1522 1523 1523 1523 1524 1524 1523 1523 1522 1522 1522 1522 1521 1520 1519 1519 1519
1496 1497 1498 1500 1501 1503 1505 1506 1508 1509 1511 1512 1513 1514 1515 1516 1516 1517 1518 1518 1518 1519 1519 1519 1519 1520 1520 1521 1521 1521 1521 1521 1521 1520 1520 1520 1519 1519 1519 1518 1517 1516 1516
1494 1496 1495 1497 1499 1501 1502 1505 1506 1507 1509 1510 1511 1512 1512 1513 1514 1515 1516 1516 1517 1517 1517 1517 1517 1517 1518 1518 1518 1518 1518 1518 1518 1518 1517 1517 1516 1516 1516 1516 1515 1514 1512
1493 1494 1495 1495 1496 1498 1501 1502 1504 1505 1506 1508 1508 1509 1509 1511 1512 1513 1514 1514 1515 1515 1514 1514 1514 1515 1515 1515 1515 1515 1515 1515 1515 1515 1514 1514 1514 1513 1513 1512 1512 1511 1510
1492 1492 1493 1493 1494 1497 1499 1500 1502 1503 1504 1505 1506 1507 1507 1508 1510 1511 1511 1511 1511 1512 1512 1511 1511 1512 1512 1512 1512 1512 1512 1512 1512 1512 1511 1511 1511 1510 1510 1510 1509 1508 1508
1490 1491 1491 1492 1494 1496 1497 1497 1499 1500 1502 1502 1503 1504 1505 1506 1507 1508 1508 1509 1509 1509 1509 1508 1508 1508 1508 1509 1509 1508 1508 1509 1509 1508 1508 1508 1507 1507 1507 1506 1506 1505 1504
1489 1490 1491 1491 1493 1493 1495 1496 1496 1498 1499 1500 1500 1501 1502 1503 1504 1505 1506 1506 1505 1505 1505 1505 1505 1505 1505 1505 1506 1506 1505 1505 1505 1505 1505 1505 1504 1504 1503 1503 1502 1502 1501
1488 1489 1490 1490 1491 1492 1493 1493 1494 1495 1496 1497 1497 1498 1499 1500 1501 1502 1502 1502 1502 1502 1502 1502 1502 1502 1502 1502 1503 1503 1502 1502 1502 1502 1501 1501 1501 1500 1500 1500 1499 1499 1498
1486 1487 1488 1488 1490 1490 1490 1491 1492 1493 1493 1494 1495 1495 1496 1497 1498 1498 1499 1499 1499 1499 1498 1498 1498 1499 1499 1499 1499 1499 1500 1500 1499 1498 1498 1497 1497 1496 1496 1496 1495 1495 1494
1484 1485 1485 1486 1487 1487 1488 1488 1489 1489 1490 1492 1492 1492 1492 1494 1494 1495 1495 1495 1496 1495 1495 1495 1495 1496 1496 1496 1496 1496 1496 1496 1495 1494 1494 1494 1494 1493 1492 1492 1491 1491 1490
1482 1482 1483 1484 1484 1485 1485 1486 1486 1486 1487 1489 1489 1489 1490 1491 1491 1491 1491 1492 1492 1491 1491 1492 1492 1492 1492 1492 1493 1493 1492 1492 1492 1491 1491 1490 1490 1490 1489 1488 1487 1486 1486
1479 1480 1480 1481 1481 1482 1482 1482 1483 1484 1485 1485 1485 1486 1487 1487 1488 1488 1488 1488 1488 1488 1488 1488 1488 1489 1489 1489 1489 1489 1489 1489 1488 1488 1487 1487 1486 1486 1485 1485 1484 1483 1482
1477 1477 1478 1478 1479 1479 1479 1480 1481 1482 1482 1482 1482 1483 1483 1484 1484 1484 1484 1484 1484 1484 1484 1484 1484 1485 1485 1485 1485 1485 1485 1485 1484 1484 1484 1483 1483 1482 1481 1481 1480 1480 1479
1474 1474 1475 1475 1476 1476 1476 1477 1477 1478 1479 1479 1479 1480 1480 1480 1480 1480 1480 1480 1481 1481 1481 1480 1481 1481 1481 1482 1482 1481 1481 1481 1481 1480 1480 1479 1479 1478 1478 1477 1477 1476 1475
1472 1472 1472 1473 1473 1474 1474 1474 1475 1475 1475 1475 1475 1476 1476 1476 1476 1476 1477 1477 1476 1477 1476 1476 1477 1477 1477 1478 1478 1478 1477 1477 1477 1477 1476 1476 1475 1475 1474 1474 1473 1473 1472
1470 1470 1470 1470 1471 1471 1472 1472 1473 1473 1472 1472 1472 1472 1472 1472 1472 1473 1473 1473 1473 1473 1473 1473 1473 1474 1474 1474 1474 1474 1474 1473 1473 1473 1473 1472 1472 1472 1472 1471 1471 1470 1470
1467 1467 1467 1468 1468 1469 1470 1470 1470 1470 1470 1469 1469 1469 1469 1468 1468 1468 1469 1469 1470 1470 1470 1470 1470 1470 1470 1471 1470 1470 1470 1470 1470 1470 1469 1469 1469 1469 1468 1468 1467 1467 1467
1464 1464 1465 1465 1466 1466 1467 1467 1467 1467 1467 1467 1466 1466 1466 1465 1465 1465 1465 1466 1466 1466 1467 1467 1467 1468 1468 1468 1467 1467 1467 1468 1468 1467 1467 1467 1466 1466 1465 1465 1465 1464 1464
1462 1462 1462 1463 1463 1464 1464 1465 1465 1465 1465 1464 1463 1464 1464 1463 1463 1463 1463 1463 1464 1464 1464 1465 1465 1465 1465 1465 1465 1465 1465 1465 1465 1464 1464 1464 1464 1463 1463 1462 1462 1462 1462
1459 1460 1461 1461 1461 1462 1462 1462 1462 1462 1462 1462 1461 1461 1461 1460 1461 1461 1461 1461 1462 1462 1462 1462 1462 1462 1463 1463 1462 1462 1462 1462 1462 1462 1461 1461 1461 1461 1460 1459 1459 1459 1459
1458 1458 1458 1459 1459 1459 1459 1460 1460 1460 1460 1459 1459 1458 1459 1459 1459 1459 1459 1459 1459 1460 1460 1460 1460 1460 1460 1460 1460 1460 1460 1460 1460 1459 1459 1458 1458 1458 1457 1457 1457 1456 1456
1456 1456 1456 1457 1457 1457 1458 1458 1458 1458 1457 1457 1457 1457 1456 1456 1456 1456 1456 1457 1457 1457 1457 1457 1457 1458 1458 1458 1458 1458 1458 1458 1458 1457 1456 1456 1456 1456 1455 1455 1454 1454 1453
1454 1454 1455 1455 1455 1455 1456 1455 1455 1455 1455 1455 1454 1454 1454 1454 1454 1454 1454 1454 1454 1455 1455 1455 1455 1456 1455 1456 1456 1456 1456 1455 1455 1454 1454 1454 1453 1453 1452 1452 1451 1451 1451